ANZ253 NZWN-YMML

Flight info

Callsign ANZ253
Flight time N/A
Altitude 34000
Route GOPLU DCT TOMAR/N0451F360 DCT TUVBI DCT BOTGU DCT 40S154E DCT GIVID DCT TASIS P753 RAZZI
Aircraft A320/M-SDE3FGHIRWY/LB1

Departure

Time 2026-05-03 20:30
Airport Wellington International Airport (NZWN)

Arrival

Time N/A
Airport Melbourne Airport (YMML)
Time Latitude Longitude Altitude Speed Heading
2026-05-03 20:15 -41.32839 174.80991 26 ft 0 kts 66°
2026-05-03 20:21 -41.32846 174.80972 28 ft 4 kts 61°
2026-05-03 20:21 -41.32858 174.80941 31 ft 4 kts 79°
2026-05-03 20:21 -41.32855 174.80912 30 ft 4 kts 119°
2026-05-03 20:22 -41.32838 174.80888 31 ft 4 kts 162°
2026-05-03 20:22 -41.32812 174.80885 29 ft 4 kts 185°
2026-05-03 20:22 -41.32794 174.80887 29 ft 0 kts 182°
2026-05-03 20:24 -41.32797 174.80887 26 ft 1 kts 182°
2026-05-03 20:25 -41.32816 174.80883 29 ft 4 kts 195°
2026-05-03 20:25 -41.32828 174.80846 26 ft 6 kts 262°
2026-05-03 20:25 -41.32856 174.80807 30 ft 7 kts 195°
2026-05-03 20:25 -41.32912 174.80803 26 ft 9 kts 182°
2026-05-03 20:26 -41.32981 174.80798 26 ft 11 kts 183°
2026-05-03 20:26 -41.33062 174.80792 26 ft 13 kts 182°
2026-05-03 20:26 -41.33156 174.80787 26 ft 14 kts 182°
2026-05-03 20:26 -41.33259 174.80781 26 ft 16 kts 183°
2026-05-03 20:27 -41.33372 174.80774 26 ft 17 kts 183°
2026-05-03 20:27 -41.33493 174.80767 26 ft 18 kts 182°
2026-05-03 20:27 -41.33528 174.80758 26 ft 0 kts 201°
2026-05-03 20:27 -41.33531 174.80757 26 ft 3 kts 203°
2026-05-03 20:28 -41.33570 174.80703 26 ft 12 kts 245°
2026-05-03 20:28 -41.33576 174.80629 26 ft 1 kts 331°
2026-05-03 20:28 -41.33562 174.80631 26 ft 0 kts
2026-05-03 20:28 -41.33561 174.80631 26 ft 0 kts
2026-05-03 20:29 -41.33378 174.80643 26 ft 67 kts
2026-05-03 20:29 -41.32662 174.80692 27 ft 136 kts
2026-05-03 20:29 -41.31611 174.80766 432 ft 155 kts
2026-05-03 20:30 -41.30512 174.80849 1189 ft 161 kts
2026-05-03 20:30 -41.29379 174.80923 1997 ft 164 kts
2026-05-03 20:30 -41.28195 174.80999 2358 ft 180 kts
2026-05-03 20:30 -41.26896 174.81075 2654 ft 195 kts 358°
2026-05-03 20:31 -41.25541 174.80832 3236 ft 197 kts 343°
2026-05-03 20:31 -41.24243 174.80147 3695 ft 208 kts 334°
2026-05-03 20:31 -41.22819 174.79417 3885 ft 232 kts 340°
2026-05-03 20:31 -41.21187 174.78798 4242 ft 253 kts 343°
2026-05-03 20:32 -41.19450 174.78199 4920 ft 262 kts 342°
2026-05-03 20:32 -41.17658 174.77576 5592 ft 270 kts 342°
2026-05-03 20:32 -41.15822 174.76938 6320 ft 275 kts 341°
2026-05-03 20:32 -41.14059 174.75927 7033 ft 278 kts 324°
2026-05-03 20:33 -41.12560 174.74316 7709 ft 279 kts 309°
2026-05-03 20:33 -41.11289 174.72358 8421 ft 281 kts 307°
2026-05-03 20:33 -41.10008 174.70375 9144 ft 285 kts 308°
2026-05-03 20:33 -41.08707 174.68373 9851 ft 288 kts 308°
2026-05-03 20:34 -41.07383 174.66346 10401 ft 294 kts 308°
2026-05-03 20:34 -41.06038 174.64294 10525 ft 299 kts 308°
2026-05-03 20:34 -41.04618 174.62120 10556 ft 320 kts 307°
2026-05-03 20:34 -41.03286 174.59674 10560 ft 339 kts 296°
2026-05-03 20:35 -41.02336 174.56785 10555 ft 349 kts 284°
2026-05-03 20:35 -41.01880 174.53624 10556 ft 351 kts 271°
2026-05-03 20:35 -41.01883 174.50418 10547 ft 345 kts 266°
2026-05-03 20:35 -41.01949 174.47212 10549 ft 348 kts 266°
2026-05-03 20:36 -41.02013 174.44027 10550 ft 345 kts 266°
2026-05-03 20:36 -41.02076 174.40838 10550 ft 344 kts 266°
2026-05-03 20:36 -41.02136 174.37669 10549 ft 342 kts 266°
2026-05-03 20:36 -41.02194 174.34506 10547 ft 342 kts 266°
2026-05-03 20:37 -41.02252 174.31319 10551 ft 349 kts 266°
2026-05-03 20:37 -41.02307 174.28099 10544 ft 351 kts 267°
2026-05-03 20:37 -41.02362 174.24862 10549 ft 352 kts 267°
2026-05-03 20:37 -41.02416 174.21622 10550 ft 352 kts 267°
2026-05-03 20:38 -41.02470 174.18376 10548 ft 352 kts 267°
2026-05-03 20:38 -41.02522 174.15135 10550 ft 352 kts 267°
2026-05-03 20:38 -41.02446 174.11887 10606 ft 356 kts 272°
2026-05-03 20:38 -41.02265 174.08607 11262 ft 357 kts 272°
2026-05-03 20:39 -41.02087 174.05317 11892 ft 360 kts 272°
2026-05-03 20:39 -41.01910 174.01997 12501 ft 363 kts 273°
2026-05-03 20:39 -41.01731 173.98646 13080 ft 367 kts 273°
2026-05-03 20:39 -41.01550 173.95263 13654 ft 370 kts 273°
2026-05-03 20:40 -41.01364 173.91841 14227 ft 374 kts 274°
2026-05-03 20:40 -41.01175 173.88441 14745 ft 377 kts 274°
2026-05-03 20:40 -41.00981 173.84967 15241 ft 380 kts 274°
2026-05-03 20:40 -41.00814 173.81411 15732 ft 384 kts 270°
2026-05-03 20:41 -41.01034 173.77882 16209 ft 387 kts 260°
2026-05-03 20:41 -41.01501 173.74360 16699 ft 390 kts 259°
2026-05-03 20:41 -41.01968 173.70806 17188 ft 394 kts 260°
2026-05-03 20:41 -41.02430 173.67265 17694 ft 397 kts 259°
2026-05-03 20:42 -41.02900 173.63641 18206 ft 401 kts 260°
2026-05-03 20:42 -41.03375 173.59932 18717 ft 405 kts 260°
2026-05-03 20:42 -41.03838 173.56285 19184 ft 409 kts 260°
2026-05-03 20:42 -41.04311 173.52559 19659 ft 412 kts 260°
2026-05-03 20:43 -41.04789 173.48796 20117 ft 415 kts 260°
2026-05-03 20:43 -41.05271 173.45015 20584 ft 418 kts 260°
2026-05-03 20:43 -41.05755 173.41208 21041 ft 420 kts 259°
2026-05-03 20:43 -41.06239 173.37387 21487 ft 422 kts 260°
2026-05-03 20:44 -41.06726 173.33530 21905 ft 425 kts 260°
2026-05-03 20:44 -41.07213 173.29658 22315 ft 427 kts 260°
2026-05-03 20:44 -41.07701 173.25766 22715 ft 429 kts 260°
2026-05-03 20:44 -41.08191 173.21853 23099 ft 432 kts 260°
2026-05-03 20:45 -41.08679 173.17919 23474 ft 434 kts 260°
2026-05-03 20:45 -41.09166 173.13965 23848 ft 436 kts 261°
2026-05-03 20:45 -41.09657 173.09987 24179 ft 439 kts 260°
2026-05-03 20:45 -41.10150 173.05987 24478 ft 441 kts 260°
2026-05-03 20:46 -41.10647 173.01972 24792 ft 442 kts 259°
2026-05-03 20:46 -41.11146 172.97939 25069 ft 444 kts 259°
2026-05-03 20:46 -41.11647 172.93892 25368 ft 446 kts 260°
2026-05-03 20:46 -41.12145 172.89828 25652 ft 448 kts 260°
2026-05-03 20:47 -41.12644 172.85746 25955 ft 449 kts 260°
2026-05-03 20:47 -41.12976 172.83030 26176 ft 450 kts 260°
2026-05-03 20:47 -41.13473 172.78935 26563 ft 449 kts 260°
2026-05-03 20:47 -41.13965 172.74851 26994 ft 448 kts 260°
2026-05-03 20:48 -41.14454 172.70779 27418 ft 447 kts 261°
2026-05-03 20:48 -41.14940 172.66716 27838 ft 446 kts 260°
2026-05-03 20:48 -41.15423 172.62660 28267 ft 445 kts 260°
2026-05-03 20:48 -41.15905 172.58611 28690 ft 444 kts 259°
2026-05-03 20:49 -41.16387 172.54566 29117 ft 443 kts 260°
2026-05-03 20:49 -41.16866 172.50532 29540 ft 442 kts 260°
2026-05-03 20:49 -41.17341 172.46505 29975 ft 441 kts 260°
2026-05-03 20:49 -41.17815 172.42485 30418 ft 440 kts 260°
2026-05-03 20:50 -41.18288 172.38473 30815 ft 440 kts 260°
2026-05-03 20:50 -41.18758 172.34469 31185 ft 439 kts 260°
2026-05-03 20:50 -41.19223 172.30472 31565 ft 438 kts 260°
2026-05-03 20:50 -41.19687 172.26485 31946 ft 437 kts 260°
2026-05-03 20:51 -41.20150 172.22509 32332 ft 435 kts 260°
2026-05-03 20:51 -41.20616 172.18543 32704 ft 434 kts 260°
2026-05-03 20:51 -41.21075 172.14580 33081 ft 433 kts 260°
2026-05-03 20:51 -41.21525 172.10630 33461 ft 432 kts 260°
2026-05-03 20:52 -41.21973 172.06691 33840 ft 431 kts 260°
2026-05-03 20:52 -41.22418 172.02761 34205 ft 430 kts 260°
2026-05-03 20:52 -41.22862 171.98846 34575 ft 428 kts 260°
2026-05-03 20:52 -41.23307 171.94941 34874 ft 427 kts 260°
2026-05-03 20:53 -41.23749 171.91048 35171 ft 426 kts 260°
2026-05-03 20:53 -41.24179 171.87218 35455 ft 424 kts 260°
2026-05-03 20:53 -41.24615 171.83346 35712 ft 423 kts 261°
2026-05-03 20:53 -41.25051 171.79482 35983 ft 422 kts 261°
2026-05-03 20:54 -41.25487 171.75628 36240 ft 421 kts 261°
2026-05-03 20:54 -41.26348 171.67938 36720 ft 420 kts 261°
2026-05-03 20:54 -41.26771 171.64103 36951 ft 419 kts 261°
2026-05-03 20:55 -41.27193 171.60273 37167 ft 418 kts 261°
2026-05-03 20:55 -41.27617 171.56442 37378 ft 418 kts 261°
2026-05-03 20:55 -41.28037 171.52624 37584 ft 417 kts 261°
2026-05-03 20:55 -41.28455 171.48812 37787 ft 417 kts 261°
2026-05-03 20:56 -41.28870 171.45004 37984 ft 416 kts 261°
2026-05-03 20:56 -41.29280 171.41206 38171 ft 415 kts 261°
2026-05-03 20:56 -41.29684 171.37400 38356 ft 415 kts 261°
2026-05-03 20:56 -41.30091 171.33607 38530 ft 414 kts 261°
2026-05-03 20:57 -41.30494 171.29818 38699 ft 414 kts 261°
2026-05-03 20:57 -41.30901 171.26033 38842 ft 414 kts 261°
2026-05-03 20:57 -41.31313 171.22242 38984 ft 413 kts 261°
2026-05-03 20:57 -41.31725 171.18460 39129 ft 413 kts 261°
2026-05-03 20:58 -41.32129 171.14680 39261 ft 413 kts 261°
2026-05-03 20:58 -41.32529 171.10903 39374 ft 412 kts 261°
2026-05-03 20:58 -41.32925 171.07129 39518 ft 411 kts 261°
2026-05-03 20:58 -41.33318 171.03362 39580 ft 412 kts 261°
2026-05-03 20:59 -41.34114 170.95772 39586 ft 417 kts 261°
2026-05-03 20:59 -41.34922 170.88088 39588 ft 420 kts 261°
2026-05-03 21:00 -41.35585 170.81675 39589 ft 421 kts 261°
2026-05-03 21:00 -41.36121 170.76495 39325 ft 425 kts 261°
2026-05-03 21:00 -41.36522 170.72615 38984 ft 421 kts 261°
2026-05-03 21:01 -41.36915 170.68771 38747 ft 418 kts 261°
2026-05-03 21:01 -41.37304 170.64941 38772 ft 418 kts 261°
2026-05-03 21:01 -41.37691 170.61106 38928 ft 418 kts 261°
2026-05-03 21:01 -41.38076 170.57273 39085 ft 418 kts 261°
2026-05-03 21:02 -41.38457 170.53485 39227 ft 417 kts 261°
2026-05-03 21:02 -41.38843 170.49658 39350 ft 417 kts 261°
2026-05-03 21:02 -41.39226 170.45837 39489 ft 416 kts 261°
2026-05-03 21:02 -41.39607 170.42022 39570 ft 416 kts 261°
2026-05-03 21:03 -41.39890 170.34293 39579 ft 420 kts 269°
2026-05-03 21:03 -41.39854 170.26508 39582 ft 420 kts 269°
2026-05-03 21:04 -41.39824 170.18714 39581 ft 421 kts 269°
2026-05-03 21:04 -41.39786 170.10931 39583 ft 420 kts 269°
2026-05-03 21:05 -41.39734 170.03145 39593 ft 421 kts 269°
2026-05-03 21:05 -41.39676 169.95351 39600 ft 421 kts 269°
2026-05-03 21:06 -41.39623 169.87554 39603 ft 421 kts 269°
2026-05-03 21:06 -41.39566 169.79756 39608 ft 421 kts 269°
2026-05-03 21:07 -41.39499 169.71954 39609 ft 421 kts 269°
2026-05-03 21:07 -41.39427 169.64164 39609 ft 421 kts 269°
2026-05-03 21:08 -41.39341 169.56378 39609 ft 420 kts 269°
2026-05-03 21:08 -41.39252 169.48594 39610 ft 420 kts 269°
2026-05-03 21:09 -41.39163 169.40810 39606 ft 420 kts 269°
2026-05-03 21:09 -41.39062 169.33029 39611 ft 420 kts 269°
2026-05-03 21:10 -41.38965 169.25244 39618 ft 420 kts 269°
2026-05-03 21:10 -41.38865 169.17471 39619 ft 420 kts 269°
2026-05-03 21:11 -41.38751 169.09753 39614 ft 420 kts 269°
2026-05-03 21:11 -41.38634 169.01933 39612 ft 420 kts 269°
2026-05-03 21:12 -41.38521 168.94167 39612 ft 419 kts 269°
2026-05-03 21:12 -41.38398 168.86454 39612 ft 419 kts 270°
2026-05-03 21:13 -41.38264 168.78639 39610 ft 419 kts 270°
2026-05-03 21:13 -41.38126 168.70921 39610 ft 419 kts 270°
2026-05-03 21:14 -41.37983 168.63161 39609 ft 419 kts 270°
2026-05-03 21:14 -41.37835 168.55406 39611 ft 419 kts 270°
2026-05-03 21:15 -41.37685 168.47654 39606 ft 419 kts 270°
2026-05-03 21:15 -41.37534 168.39906 39608 ft 419 kts 270°
2026-05-03 21:16 -41.37372 168.32157 39607 ft 419 kts 270°
2026-05-03 21:16 -41.37194 168.24400 39606 ft 419 kts 270°
2026-05-03 21:17 -41.37051 168.17910 39600 ft 419 kts 270°
2026-05-03 21:17 -41.36845 168.08899 39609 ft 419 kts 270°
2026-05-03 21:18 -41.36662 168.01148 39611 ft 419 kts 270°
2026-05-03 21:18 -41.36470 167.93401 39597 ft 419 kts 270°
2026-05-03 21:19 -41.36280 167.85657 39602 ft 419 kts 270°
2026-05-03 21:19 -41.36088 167.77917 39601 ft 418 kts 270°
2026-05-03 21:20 -41.35883 167.70171 39599 ft 418 kts 270°
2026-05-03 21:20 -41.35672 167.62434 39597 ft 418 kts 270°
2026-05-03 21:21 -41.35457 167.54696 39596 ft 418 kts 271°
2026-05-03 21:21 -41.35239 167.46961 39592 ft 418 kts 271°
2026-05-03 21:22 -41.35018 167.39225 39591 ft 418 kts 271°
2026-05-03 21:22 -41.34794 167.31487 39591 ft 419 kts 271°
2026-05-03 21:23 -41.34565 167.23747 39586 ft 419 kts 271°
2026-05-03 21:23 -41.34319 167.16008 39588 ft 419 kts 271°
2026-05-03 21:24 -41.34067 167.08261 39582 ft 419 kts 271°
2026-05-03 21:24 -41.33812 167.00519 39580 ft 419 kts 271°
2026-05-03 21:25 -41.33556 166.92825 39582 ft 419 kts 271°
2026-05-03 21:25 -41.33296 166.85026 39583 ft 419 kts 271°
2026-05-03 21:26 -41.33033 166.77331 39579 ft 419 kts 271°
2026-05-03 21:26 -41.32765 166.69588 39579 ft 419 kts 271°
2026-05-03 21:27 -41.32491 166.61839 39576 ft 419 kts 271°
2026-05-03 21:27 -41.32207 166.54099 39576 ft 419 kts 271°
2026-05-03 21:28 -41.31922 166.46359 39575 ft 419 kts 272°
2026-05-03 21:28 -41.31628 166.38623 39574 ft 419 kts 272°
2026-05-03 21:29 -41.31329 166.30891 39568 ft 419 kts 272°
2026-05-03 21:29 -41.31025 166.23155 39569 ft 419 kts 272°
2026-05-03 21:30 -41.30722 166.15417 39567 ft 419 kts 272°
2026-05-03 21:30 -41.30408 166.07670 39566 ft 419 kts 272°
2026-05-03 21:31 -41.30092 165.99931 39564 ft 419 kts 272°
2026-05-03 21:31 -41.29765 165.92191 39562 ft 419 kts 272°
2026-05-03 21:32 -41.29440 165.84449 39564 ft 419 kts 272°
2026-05-03 21:32 -41.29107 165.76708 39553 ft 419 kts 272°
2026-05-03 21:33 -41.28829 165.70269 39556 ft 420 kts 272°
2026-05-03 21:33 -41.28488 165.62527 39556 ft 419 kts 272°
2026-05-03 21:34 -41.28129 165.54787 39551 ft 420 kts 272°
2026-05-03 21:34 -41.27767 165.47048 39557 ft 419 kts 272°
2026-05-03 21:35 -41.27412 165.39317 39554 ft 419 kts 272°
2026-05-03 21:35 -41.27057 165.31587 39549 ft 419 kts 273°
2026-05-03 21:36 -41.26683 165.23869 39545 ft 418 kts 273°
2026-05-03 21:36 -41.26308 165.16152 39544 ft 419 kts 273°
2026-05-03 21:37 -41.25932 165.08432 39543 ft 419 kts 273°
2026-05-03 21:37 -41.25553 165.00712 39538 ft 419 kts 273°
2026-05-03 21:38 -41.25165 164.92991 39539 ft 419 kts 273°
2026-05-03 21:38 -41.24773 164.85259 39537 ft 419 kts 273°
2026-05-03 21:39 -41.24377 164.77580 39536 ft 420 kts 273°
2026-05-03 21:39 -41.23969 164.69846 39534 ft 420 kts 273°
2026-05-03 21:40 -41.23552 164.62113 39530 ft 420 kts 273°
2026-05-03 21:40 -41.23135 164.54383 39529 ft 419 kts 273°
2026-05-03 21:41 -41.22720 164.46657 39526 ft 419 kts 273°
2026-05-03 21:41 -41.22296 164.38938 39526 ft 419 kts 274°
2026-05-03 21:42 -41.21862 164.31221 39521 ft 419 kts 274°
2026-05-03 21:42 -41.21423 164.23498 39522 ft 419 kts 274°
2026-05-03 21:43 -41.20988 164.15783 39518 ft 419 kts 274°
2026-05-03 21:43 -41.20547 164.08068 39517 ft 419 kts 274°
2026-05-03 21:44 -41.20095 164.00355 39512 ft 419 kts 274°
2026-05-03 21:44 -41.19635 163.92643 39510 ft 419 kts 274°
2026-05-03 21:45 -41.19175 163.84934 39508 ft 419 kts 274°
2026-05-03 21:45 -41.18714 163.77218 39504 ft 419 kts 274°
2026-05-03 21:46 -41.18236 163.69508 39505 ft 419 kts 274°